Location: Slave Lake
(55.2830°N, 114.7830°W)
Time: 07:32:03
(UTC-06:00)

Amateur Radio Satellites - All Passes

Search period start: 06 July 2015 07:02
Search period end: 07 July 2015 07:02
Location: Slave Lake, 55.2830°N, 114.7830°W

Satellite Date Start Highest point End Downlink Frequencies (MHz)
Time Altitude Azimuth
HORYU 2 06 Jul 07:06:06 07:09:55 28° 300° (WNW) 07:13:41 437.375
AUBIESAT-1 06 Jul 07:14:07 07:15:40 13° 44° (NE) 07:17:21 437.475
DANDE 06 Jul 07:16:09 07:17:23 11° 85° (E) 07:18:51 436.750
CUTE-I 06 Jul 07:21:34 07:26:16 30° 92° (E) 07:31:00 437.470
O/OREOS (USA 219) 06 Jul 07:22:48 07:25:29 16° 102° (ESE) 07:28:20 437.305
CUBESAT XI-V 06 Jul 07:23:01 07:27:37 49° 261° (W) 07:32:14 437.345
AO-7 06 Jul 07:24:56 07:33:05 57° 303° (WNW) 07:41:09 29.400- 29.500
STRAND 1 06 Jul 07:25:35 07:30:45 81° 72° (ENE) 07:35:58 437.568
YUBILEINY 06 Jul 07:30:39 07:37:05 21° 318° (NW) 07:43:19 435.215
CUSAT 1 06 Jul 07:38:42 07:42:17 19° 92° (E) 07:45:26 437.405
Cosmos 2504 06 Jul 07:45:12 07:52:02 61° 288° (WNW) 07:59:01 435.465 / 435.565
M-CUBED/EXP-1 PRIME 06 Jul 07:48:42 07:51:31 24° 53° (NE) 07:54:31 437.505
Cubesat XI-IV 06 Jul 07:56:08 08:01:25 53° 100° (E) 08:06:41 437.490
GONETS M04 06 Jul 08:12:33 08:18:29 22° 73° (ENE) 08:24:42
PRISM 06 Jul 08:23:18 08:27:09 33° 264° (W) 08:31:00 437.425
BEESAT 3 06 Jul 08:23:44 08:27:37 43° 127° (SE) 08:31:33 437.485
JAS-2 06 Jul 08:33:38 08:36:42 14° 320° (NW) 08:39:43 435.910
AIST 2 06 Jul 08:33:53 08:36:36 17° 116° (ESE) 08:39:27 435.215
BEESAT 2 06 Jul 08:38:40 08:42:38 47° 128° (SE) 08:46:39 435.950
AUBIESAT-1 06 Jul 08:46:22 08:49:46 71° 64° (ENE) 08:53:25 437.475
ISS 06 Jul 08:47:58 08:49:15 12° 145° (SE) 08:50:36 145.825
DANDE 06 Jul 08:53:50 09:00:05 56° 100° (E) 09:04:46 436.750
O/OREOS (USA 219) 06 Jul 08:59:51 09:04:20 88° 299° (WNW) 09:08:51 437.305
RS-15 06 Jul 09:00:08 09:11:19 58° 17° (NNE) 09:23:04 29.354- 29.394
CUTE-I 06 Jul 09:01:24 09:06:42 57° 294° (WNW) 09:11:57 437.470
TIGRISAT 06 Jul 09:05:56 09:06:21 10° 48° (NE) 09:06:55 435.000
GOMX 1 06 Jul 09:06:37 09:09:49 21° 89° (E) 09:13:01 467.674
STRAND 1 06 Jul 09:06:48 09:10:39 20° 273° (W) 09:14:24 437.568
AO-7 06 Jul 09:18:07 09:24:24 24° 328° (NNW) 09:30:31 29.400- 29.500
CUSAT 1 06 Jul 09:19:07 09:24:44 76° 285° (WNW) 09:28:54 437.405
CUTE 1.7 + AOD 2 06 Jul 09:19:27 09:22:17 17° 87° (E) 09:25:13 437.475
CANX-2 06 Jul 09:22:55 09:26:05 20° 89° (E) 09:29:20 2200.000
M-CUBED/EXP-1 PRIME 06 Jul 09:22:57 09:26:12 41° 255° (WSW) 09:29:37 437.505
HO-68 06 Jul 09:31:45 09:37:57 31° 91° (E) 09:44:14 435.675
Cubesat XI-IV 06 Jul 09:36:31 09:41:24 35° 301° (WNW) 09:46:11 437.490
YUBILEINY 06 Jul 09:37:27 09:38:31 10° 351° (N) 09:39:29 435.215
DOVE 4 06 Jul 09:40:39 09:44:13 27° 93° (E) 09:47:49 437.250
BRITE-PL 06 Jul 09:41:02 09:45:26 63° 102° (ESE) 09:49:35 437.365/2234.400
Cosmos 2504 06 Jul 09:41:28 09:46:04 18° 316° (NW) 09:50:34 435.465 / 435.565
UNISAT 6 06 Jul 09:43:30 09:46:30 19° 57° (ENE) 09:49:37 437.425
BEESAT 3 06 Jul 10:01:38 10:05:36 44° 328° (NNW) 10:09:35 437.485
SEEDS 06 Jul 10:03:50 10:07:44 34° 95° (E) 10:11:40 437.485
GONETS M04 06 Jul 10:05:16 10:13:59 74° 96° (E) 10:22:42
QB50P1 06 Jul 10:05:45 10:08:14 16° 54° (NE) 10:10:51 145.935-145.965
AAUSAT CUBESAT 2 06 Jul 10:09:53 10:13:33 28° 93° (E) 10:17:15 437.432
AIST 2 06 Jul 10:10:21 10:14:38 83° 137° (SE) 10:18:56 435.215
CINEMA 3 06 Jul 10:11:18 10:14:51 27° 93° (E) 10:18:29 145.822/145.860
DELFI C3 06 Jul 10:12:49 10:14:15 12° 83° (E) 10:15:51 145.870
BEESAT 2 06 Jul 10:16:49 10:20:47 42° 329° (NNW) 10:24:46 435.950
NANOSAT C BR1 06 Jul 10:18:33 10:21:30 19° 57° (ENE) 10:24:33 145.865
ISS 06 Jul 10:22:03 10:24:59 32° 163° (SSE) 10:27:56 145.825
AUBIESAT-1 06 Jul 10:23:17 10:25:08 13° 267° (W) 10:26:55 437.475
DUCHIFAT 1 06 Jul 10:24:34 10:27:40 21° 58° (ENE) 10:30:51 145.980
ANTELSAT 06 Jul 10:26:50 10:30:49 40° 66° (ENE) 10:34:51 437.575/2403.000
POLYITAN 1 06 Jul 10:31:59 10:35:24 24° 59° (ENE) 10:38:51 437.675
BUGSAT 1 06 Jul 10:32:38 10:35:26 18° 56° (ENE) 10:38:19 437.445
COMPASS 1 06 Jul 10:37:34 10:41:45 56° 100° (E) 10:45:56 437.405
DANDE 06 Jul 10:38:03 10:43:24 30° 295° (WNW) 10:47:32 436.750
TIGRISAT 06 Jul 10:38:07 10:42:12 48° 68° (ENE) 10:46:20 435.000
ZACube-1 06 Jul 10:39:21 10:42:17 18° 88° (E) 10:45:19 437.345
O/OREOS (USA 219) 06 Jul 10:40:52 10:44:25 22° 324° (NW) 10:47:56 437.305
CUTE-I 06 Jul 10:42:42 10:45:51 16° 314° (NW) 10:48:50 437.470
Oscar 11 06 Jul 10:43:03 10:46:53 30° 94° (E) 10:50:44 145.826/435.025
GOMX 1 06 Jul 10:44:12 10:48:24 56° 291° (WNW) 10:52:29 467.674
CUBEBUG 2 06 Jul 10:45:43 10:49:25 30° 94° (E) 10:53:13 437.445
Cosmos 2499 06 Jul 10:48:27 10:54:31 33° 84° (E) 11:00:53 435.465 / 435.565
CUTE 1.7 + AOD 2 06 Jul 10:54:26 10:58:44 74° 289° (WNW) 11:03:02 437.475
CANX-2 06 Jul 10:58:10 11:02:26 63° 289° (WNW) 11:06:41 2200.000
QB50P2 06 Jul 11:00:39 11:04:36 40° 66° (ENE) 11:08:36 145.880/145.840
POPSAT HIP 1 06 Jul 11:00:50 11:04:46 39° 66° (ENE) 11:08:45 437.405
CUSAT 1 06 Jul 11:05:08 11:07:47 14° 303° (WNW) 11:09:59 437.405
AO-7 06 Jul 11:10:04 11:14:20 15° 355° (N) 11:18:35 29.400- 29.500
RS-15 06 Jul 11:13:15 11:24:50 85° 226° (SW) 11:36:54 29.354- 29.394
FUNcube-1 06 Jul 11:14:01 11:17:52 35° 96° (E) 11:21:49 145.935
DOVE 4 06 Jul 11:18:14 11:22:13 42° 293° (WNW) 11:26:08 437.250
UNISAT 6 06 Jul 11:18:36 11:22:52 74° 256° (WSW) 11:27:10 437.425
HO-68 06 Jul 11:19:14 11:26:25 75° 294° (WNW) 11:33:33 435.675
Cubesat XI-IV 06 Jul 11:19:20 11:20:08 10° 322° (NW) 11:20:45 437.490
BRITE-PL 06 Jul 11:20:11 11:23:37 22° 303° (WNW) 11:26:51 437.365/2234.400
UWE-3 06 Jul 11:32:09 11:36:20 63° 102° (ESE) 11:40:35 435.000/436.395/437.385
YUBILEINY 06 Jul 11:36:42 11:40:37 14° 25° (NNE) 11:44:48 435.215
50 SAT 06 Jul 11:39:06 11:41:38 17° 88° (E) 11:44:15 437.505
QB50P1 06 Jul 11:39:16 11:43:31 84° 75° (ENE) 11:47:47 145.935-145.965
SEEDS 06 Jul 11:39:38 11:43:34 36° 295° (WNW) 11:47:29 437.485
BEESAT 3 06 Jul 11:41:06 11:44:25 23° 351° (N) 11:47:42 437.485
AAUSAT CUBESAT 2 06 Jul 11:45:17 11:49:18 43° 293° (WNW) 11:53:18 437.432
DELFI C3 06 Jul 11:45:59 11:50:06 80° 106° (ESE) 11:54:11 145.870
CINEMA 3 06 Jul 11:48:18 11:52:17 44° 293° (WNW) 11:56:16 145.822/145.860
ESTCUBE 1 06 Jul 11:49:34 11:52:11 15° 85° (E) 11:54:56 437.505/2401.250
AIST 2 06 Jul 11:49:44 11:53:37 32° 337° (NNW) 11:57:29 435.215
NANOSAT C BR1 06 Jul 11:52:40 11:56:54 76° 256° (WSW) 12:01:09 145.865
BEESAT 2 06 Jul 11:56:24 11:59:44 22° 352° (N) 12:03:03 435.950
VELOX 1 06 Jul 11:57:50 12:01:21 23° 91° (E) 12:04:55 145.980
ISS 06 Jul 11:57:55 12:01:01 43° 183° (S) 12:04:08 145.825
DX 1 06 Jul 11:58:51 12:02:53 36° 97° (E) 12:06:55 434.975-435.025
DUCHIFAT 1 06 Jul 11:58:53 12:03:06 68° 257° (WSW) 12:07:19 145.980
GONETS M04 06 Jul 12:03:37 12:11:41 38° 302° (WNW) 12:19:39
ANTELSAT 06 Jul 12:03:56 12:07:44 30° 266° (W) 12:11:32 437.575/2403.000
BUGSAT 1 06 Jul 12:06:14 12:10:27 81° 256° (WSW) 12:14:39 437.445
POLYITAN 1 06 Jul 12:06:52 12:11:02 55° 259° (W) 12:15:13 437.675
COMPASS 1 06 Jul 12:13:43 12:17:09 24° 300° (WNW) 12:20:32 437.405
ZACube-1 06 Jul 12:14:55 12:19:07 68° 289° (WNW) 12:23:22 437.345
TIGRISAT 06 Jul 12:15:38 12:19:13 25° 268° (W) 12:22:46 435.000
HUMSAT D 06 Jul 12:16:01 12:20:10 64° 103° (ESE) 12:24:20 437.325/437.525
UKube-1 06 Jul 12:16:23 12:20:36 47° 100° (E) 12:24:48 .
Oscar 11 06 Jul 12:19:04 12:23:13 43° 294° (WNW) 12:27:20 145.826/435.025
CUBEBUG 2 06 Jul 12:22:18 12:26:15 40° 294° (WNW) 12:30:15 437.445
GOMX 1 06 Jul 12:24:21 12:25:42 11° 311° (NW) 12:26:54 467.674
Oscar 19 06 Jul 12:24:39 12:28:28 22° 53° (NE) 12:32:23 437.125/150
O/OREOS (USA 219) 06 Jul 12:24:45 12:25:34 10° 349° (N) 12:26:21 437.305
CUTE 1.7 + AOD 2 06 Jul 12:31:37 12:33:59 14° 307° (NW) 12:36:16 437.475
CANX-2 06 Jul 12:35:38 12:37:37 13° 309° (NW) 12:39:28 2200.000
QB50P2 06 Jul 12:36:48 12:40:37 31° 266° (W) 12:44:23 145.880/145.840
POPSAT HIP 1 06 Jul 12:36:55 12:40:45 31° 265° (W) 12:44:32 437.405
Cosmos 2499 06 Jul 12:40:14 12:47:15 65° 288° (WNW) 12:54:34 435.465 / 435.565
ITAMSAT 1 06 Jul 12:42:53 12:45:18 14° 44° (NE) 12:47:52 435.822/435.867
AISAT 06 Jul 12:45:14 12:49:38 58° 101° (ESE) 12:53:58 437.250
Gurwin Techsat 1B 06 Jul 12:48:52 12:51:44 15° 46° (NE) 12:54:45 435.225
TISAT 1 06 Jul 12:49:41 12:49:57 10° 82° (E) 12:50:27 437.305
FUNcube-1 06 Jul 12:50:22 12:54:14 35° 295° (WNW) 12:58:06 145.935
CUBEBUG 1 06 Jul 12:56:13 13:00:27 45° 99° (E) 13:04:38 437.445
AO-7 06 Jul 12:58:42 13:04:03 19° 23° (NNE) 13:09:31 29.400- 29.500
UNISAT 6 06 Jul 12:59:00 13:00:33 11° 277° (W) 13:01:54 437.425
HO-68 06 Jul 13:07:35 13:13:15 26° 316° (NW) 13:18:48 435.675
UWE-3 06 Jul 13:09:19 13:12:34 22° 301° (WNW) 13:15:47 435.000/436.395/437.385
50 SAT 06 Jul 13:12:48 13:16:42 67° 289° (WNW) 13:20:36 437.505
QB50P1 06 Jul 13:17:27 13:20:01 15° 274° (W) 13:22:28 145.935-145.965
BEESAT 3 06 Jul 13:20:02 13:23:29 25° 15° (NNE) 13:26:54 437.485
DELFI C3 06 Jul 13:21:57 13:24:43 18° 303° (WNW) 13:27:24 145.870
ESTCUBE 1 06 Jul 13:25:12 13:29:48 89° 98° (E) 13:34:21 437.505/2401.250
RS-15 06 Jul 13:26:03 13:36:05 34° 251° (WSW) 13:46:10 29.354- 29.394
AIST 2 06 Jul 13:29:50 13:33:15 22° 1° (N) 13:36:40 435.215
NANOSAT C BR1 06 Jul 13:31:55 13:33:34 12° 277° (W) 13:35:01 145.865
YUBILEINY 06 Jul 13:33:15 13:41:02 35° 56° (NE) 13:48:57 435.215
VELOX 1 06 Jul 13:33:55 13:38:17 57° 291° (WNW) 13:42:36 145.980
ISS 06 Jul 13:34:15 13:37:00 25° 203° (SSW) 13:39:44 145.825
DX 1 06 Jul 13:35:08 13:39:09 36° 297° (WNW) 13:43:07 434.975-435.025
BEESAT 2 06 Jul 13:35:24 13:38:55 26° 16° (NNE) 13:42:25 435.950
DUCHIFAT 1 06 Jul 13:38:55 13:39:49 10° 278° (W) 13:40:30 145.980
JAS-2 06 Jul 13:40:49 13:43:32 14° 40° (NE) 13:46:31 435.910
BUGSAT 1 06 Jul 13:44:48 13:46:40 12° 276° (W) 13:48:23 437.445
SPROUT 06 Jul 13:49:42 13:53:53 49° 100° (E) 13:58:02 437.525
HUMSAT D 06 Jul 13:52:23 13:55:35 21° 301° (WNW) 13:58:43 437.325/437.525
ZACube-1 06 Jul 13:52:46 13:54:48 13° 308° (NW) 13:56:44 437.345
UKube-1 06 Jul 13:52:49 13:56:34 29° 300° (WNW) 14:00:16 .
Oscar 19 06 Jul 14:02:09 14:07:18 86° 250° (WSW) 14:12:29 437.125/150
O/OREOS (USA 219) 06 Jul 14:05:46 14:07:06 11° 15° (NNE) 14:08:30 437.305
GONETS M04 06 Jul 14:07:22 14:11:56 14° 332° (NNW) 14:16:15
Cosmos 2491 06 Jul 14:08:46 14:13:59 18° 70° (ENE) 14:19:32 435.465 / 435.565
BEESAT 06 Jul 14:14:31 14:17:15 15° 84° (E) 14:20:08 436.000
ITAMSAT 1 06 Jul 14:18:44 14:23:45 50° 65° (ENE) 14:28:51 435.822/435.867
AISAT 06 Jul 14:22:18 14:25:56 25° 301° (WNW) 14:29:29 437.250
TISAT 1 06 Jul 14:22:27 14:26:39 67° 103° (ESE) 14:30:49 437.305
Gurwin Techsat 1B 06 Jul 14:25:35 14:30:46 56° 67° (ENE) 14:36:00 435.225
SWISSCUBE 06 Jul 14:29:54 14:33:33 21° 89° (E) 14:37:16 437.505
CUBEBUG 1 06 Jul 14:32:50 14:36:41 30° 299° (WNW) 14:40:28 437.445
ITUPSAT 1 06 Jul 14:36:16 14:40:00 22° 89° (E) 14:43:48 437.325
Cosmos 2499 06 Jul 14:37:10 14:42:13 20° 315° (NW) 14:47:15 435.465 / 435.565
AO-7 06 Jul 14:47:15 14:54:50 41° 49° (NE) 15:02:32 29.400- 29.500
50 SAT 06 Jul 14:49:07 14:50:39 12° 307° (NW) 14:52:03 437.505
HO-68 06 Jul 14:56:26 14:58:40 12° 341° (NNW) 15:00:47 435.675
BEESAT 3 06 Jul 14:58:02 15:02:07 61° 37° (NE) 15:06:08 437.485
HORYU 2 06 Jul 14:59:13 15:02:32 22° 56° (NE) 15:05:56 437.375
ESTCUBE 1 06 Jul 15:02:56 15:06:07 19° 306° (NW) 15:09:12 437.505/2401.250
PCSat 06 Jul 15:06:55 15:08:09 11° 103° (ESE) 15:09:40 145.827
AIST 2 06 Jul 15:08:58 15:12:52 34° 24° (NNE) 15:16:44 435.215
VELOX 1 06 Jul 15:12:05 15:14:00 13° 311° (NW) 15:15:48 145.980
BEESAT 2 06 Jul 15:13:29 15:17:37 66° 39° (NE) 15:21:41 435.950
JAS-2 06 Jul 15:22:19 15:27:24 51° 64° (ENE) 15:32:58 435.910
SPROUT 06 Jul 15:26:08 15:29:47 27° 299° (WNW) 15:33:22 437.525
Cosmos 2504 06 Jul 15:29:34 15:35:03 22° 50° (NE) 15:40:57 435.465 / 435.565
YUBILEINY 06 Jul 15:30:09 15:38:56 80° 262° (W) 15:47:42 435.215
AIST 1 06 Jul 15:37:36 15:41:03 23° 87° (E) 15:44:34
STARS 06 Jul 15:39:30 15:40:51 11° 83° (E) 15:42:24 437.465
Oscar 19 06 Jul 15:44:06 15:47:30 17° 275° (W) 15:50:45 437.125/150
O/OREOS (USA 219) 06 Jul 15:44:20 15:48:08 26° 39° (NE) 15:51:59 437.305
BEESAT 06 Jul 15:51:04 15:55:56 84° 107° (ESE) 16:00:44 436.000
ITAMSAT 1 06 Jul 15:58:43 16:03:29 34° 265° (W) 16:08:15 435.822/435.867
TISAT 1 06 Jul 15:58:53 16:02:04 21° 302° (WNW) 16:05:09 437.305
Cosmos 2491 06 Jul 16:00:35 16:09:13 64° 93° (E) 16:17:53 435.465 / 435.565
Gurwin Techsat 1B 06 Jul 16:06:23 16:11:05 31° 268° (W) 16:15:46 435.225
SWISSCUBE 06 Jul 16:07:06 16:11:55 71° 291° (WNW) 16:16:43 437.505
Cubesat XI-IV 06 Jul 16:11:28 16:12:26 11° 38° (NE) 16:13:35 437.490
ITUPSAT 1 06 Jul 16:13:34 16:18:24 69° 290° (WNW) 16:23:12 437.325
KKS-1 06 Jul 16:27:42 16:31:57 42° 98° (E) 16:36:11 437.445
HORYU 2 06 Jul 16:34:21 16:38:46 71° 255° (WSW) 16:43:14 437.375
BEESAT 3 06 Jul 16:36:19 16:39:50 28° 238° (WSW) 16:43:17 437.485
AO-7 06 Jul 16:38:53 16:47:16 74° 252° (WSW) 16:55:42 29.400- 29.500
PCSat 06 Jul 16:45:17 16:50:30 51° 122° (ESE) 16:55:46 145.827
AIST 2 06 Jul 16:47:32 16:51:47 74° 227° (SW) 16:55:58 435.215
BEESAT 2 06 Jul 16:51:57 16:55:24 26° 239° (WSW) 16:58:45 435.950
MOZHAYETS 4 06 Jul 17:02:38 17:05:30 16° 85° (E) 17:08:30
JAS-2 06 Jul 17:08:08 17:12:54 33° 268° (W) 17:17:58 435.910
CUTE-I 06 Jul 17:12:27 17:16:32 23° 52° (NE) 17:20:42 437.470
STARS 06 Jul 17:13:49 17:18:12 71° 104° (ESE) 17:22:34 437.465
AIST 1 06 Jul 17:14:05 17:18:25 54° 287° (WNW) 17:22:47
Cosmos 2504 06 Jul 17:21:18 17:28:41 73° 75° (ENE) 17:36:38 435.465 / 435.565
O/OREOS (USA 219) 06 Jul 17:23:31 17:28:03 74° 242° (WSW) 17:32:34 437.305
YUBILEINY 06 Jul 17:27:58 17:34:33 24° 285° (WNW) 17:40:55 435.215
BEESAT 06 Jul 17:29:39 17:33:16 21° 306° (NW) 17:36:47 436.000
SO-50 06 Jul 17:33:17 17:37:38 35° 123° (ESE) 17:42:08 436.795
SWISSCUBE 06 Jul 17:46:04 17:49:03 16° 310° (NW) 17:51:55 437.505
Cubesat XI-IV 06 Jul 17:46:21 17:51:12 36° 60° (ENE) 17:56:06 437.490
ITUPSAT 1 06 Jul 17:52:37 17:55:32 16° 310° (NW) 17:58:21 437.325
Cosmos 2491 06 Jul 17:58:16 18:06:38 44° 298° (WNW) 18:14:55 435.465 / 435.565
KKS-1 06 Jul 18:04:32 18:08:30 32° 298° (WNW) 18:12:26 437.445
CUSAT 1 06 Jul 18:07:41 18:08:44 12° 56° (NE) 18:09:50 437.405
GONETS M04 06 Jul 18:09:38 18:15:34 20° 39° (NE) 18:21:43
HORYU 2 06 Jul 18:14:41 18:16:20 12° 277° (W) 18:17:48 437.375
HO-68 06 Jul 18:23:45 18:28:18 19° 36° (NE) 18:33:00 435.675
AIST 2 06 Jul 18:27:19 18:29:42 14° 246° (WSW) 18:31:56 435.215
PCSat 06 Jul 18:28:47 18:34:02 48° 324° (NW) 18:39:19 145.827
AO-7 06 Jul 18:35:30 18:41:44 22° 277° (W) 18:47:42 29.400- 29.500
MOZHAYETS 4 06 Jul 18:38:44 18:43:27 88° 286° (WNW) 18:48:07
GOMX 1 06 Jul 18:46:39 18:48:30 12° 50° (NE) 18:50:27 467.674
CUTE-I 06 Jul 18:50:39 18:56:03 88° 251° (WSW) 19:01:30 437.470
STARS 06 Jul 18:50:55 18:54:16 21° 303° (WNW) 18:57:31 437.465
AIST 1 06 Jul 18:56:05 18:57:12 11° 310° (NW) 18:58:10
O/OREOS (USA 219) 06 Jul 19:04:38 19:06:45 13° 261° (W) 19:08:42 437.305
CUBESAT XI-V 06 Jul 19:12:28 19:16:25 27° 91° (E) 19:20:24 437.345
SO-50 06 Jul 19:13:11 19:18:00 63° 325° (NW) 19:22:58 436.795
Cosmos 2504 06 Jul 19:14:02 19:20:27 32° 276° (W) 19:27:07 435.465 / 435.565
DOVE 4 06 Jul 19:18:11 19:20:24 14° 52° (NE) 19:22:42 437.250
BRITE-PL 06 Jul 19:20:50 19:25:20 31° 62° (ENE) 19:29:36 437.365/2234.400
Cubesat XI-IV 06 Jul 19:25:57 19:31:12 51° 260° (W) 19:36:28 437.490
DANDE 06 Jul 19:27:50 19:30:53 61° 72° (ENE) 19:33:31 436.750
STRAND 1 06 Jul 19:29:45 19:32:55 17° 84° (E) 19:36:14 437.568
SEEDS 06 Jul 19:30:14 19:31:46 12° 51° (NE) 19:33:26 437.485
CINEMA 3 06 Jul 19:46:14 19:47:44 12° 51° (NE) 19:49:21 145.822/145.860
CUSAT 1 06 Jul 19:49:06 19:51:42 37° 262° (W) 19:54:08 437.405
PRISM 06 Jul 19:58:17 20:01:33 22° 91° (E) 20:04:51 437.425
Cosmos 2491 06 Jul 20:01:19 20:06:36 16° 328° (NNW) 20:11:37 435.465 / 435.565
COMPASS 1 06 Jul 20:01:54 20:04:37 17° 56° (NE) 20:07:25 437.405
GONETS M04 06 Jul 20:06:21 20:14:55 56° 68° (ENE) 20:23:27
HO-68 06 Jul 20:07:49 20:14:38 51° 59° (ENE) 20:21:30 435.675
Oscar 11 06 Jul 20:11:58 20:13:28 12° 49° (NE) 20:15:05 145.826/435.025
PCSat 06 Jul 20:14:10 20:18:40 25° 349° (N) 20:23:10 145.827
MOZHAYETS 4 06 Jul 20:16:53 20:20:06 18° 306° (NW) 20:23:14
CUBEBUG 2 06 Jul 20:17:41 20:19:08 12° 51° (NE) 20:20:42 437.445
CUTE 1.7 + AOD 2 06 Jul 20:19:00 20:22:43 31° 63° (ENE) 20:26:29 437.475
GOMX 1 06 Jul 20:21:04 20:25:52 55° 69° (ENE) 20:30:23 467.674
CANX-2 06 Jul 20:22:36 20:26:27 35° 65° (ENE) 20:30:21 2200.000
Cosmos 2499 06 Jul 20:28:13 20:34:11 24° 50° (NE) 20:40:38 435.465 / 435.565
CUTE-I 06 Jul 20:33:12 20:36:59 19° 275° (W) 20:40:38 437.470
FUNcube-1 06 Jul 20:43:26 20:45:12 13° 52° (NE) 20:47:05 145.935
CUBESAT XI-V 06 Jul 20:49:34 20:54:11 54° 292° (WNW) 20:58:44 437.345
DOVE 4 06 Jul 20:52:53 20:57:31 67° 71° (ENE) 21:01:56 437.250
SO-50 06 Jul 20:54:58 20:59:22 31° 348° (NNW) 21:03:47 436.795
BRITE-PL 06 Jul 20:58:30 21:03:42 56° 260° (W) 21:08:32 437.365/2234.400
UWE-3 06 Jul 21:01:22 21:04:27 21° 58° (ENE) 21:07:35 435.000/436.395/437.385
SEEDS 06 Jul 21:02:39 21:06:46 60° 70° (ENE) 21:10:57 437.485
DELFI C3 06 Jul 21:06:20 21:09:19 20° 59° (ENE) 21:12:22 145.870
AAUSAT CUBESAT 2 06 Jul 21:07:22 21:11:22 48° 68° (ENE) 21:15:26 437.432
STRAND 1 06 Jul 21:07:48 21:13:01 84° 108° (ESE) 21:18:10 437.568
CINEMA 3 06 Jul 21:19:55 21:24:13 59° 70° (ENE) 21:28:24 145.822/145.860
DX 1 06 Jul 21:27:20 21:29:56 16° 52° (NE) 21:32:39 434.975-435.025
VELOX 1 06 Jul 21:29:23 21:30:42 11° 47° (NE) 21:32:09 145.980
PRISM 06 Jul 21:33:11 21:37:20 57° 291° (WNW) 21:41:27 437.425
COMPASS 1 06 Jul 21:35:35 21:39:46 84° 253° (WSW) 21:44:00 437.405
HUMSAT D 06 Jul 21:40:38 21:43:29 19° 57° (ENE) 21:46:26 437.325/437.525
ZACube-1 06 Jul 21:42:09 21:45:56 35° 65° (ENE) 21:49:44 437.345
UKube-1 06 Jul 21:43:41 21:46:43 19° 55° (NE) 21:49:51 .
Oscar 11 06 Jul 21:44:36 21:48:48 56° 70° (ENE) 21:53:05 145.826/435.025
CUBEBUG 2 06 Jul 21:50:56 21:55:06 60° 70° (ENE) 21:59:12 437.445
AUBIESAT-1 06 Jul 21:54:04 21:57:06 19° 97° (E) 22:00:23 437.475
CUTE 1.7 + AOD 2 06 Jul 21:54:32 21:58:32 41° 263° (W) 22:02:35 437.475
HO-68 06 Jul 21:55:34 22:02:29 49° 261° (W) 22:09:25 435.675
CANX-2 06 Jul 21:58:30 22:02:23 35° 265° (W) 22:06:18 2200.000
PCSat 06 Jul 21:59:06 22:03:41 27° 15° (NNE) 22:08:17 145.827
GOMX 1 06 Jul 22:00:04 22:04:17 27° 268° (W) 22:08:13 467.674
GONETS M04 06 Jul 22:03:32 22:11:45 47° 272° (W) 22:19:51
AISAT 06 Jul 22:14:40 22:18:10 23° 58° (ENE) 22:21:43 437.250
FUNcube-1 06 Jul 22:16:42 22:20:50 67° 71° (ENE) 22:24:58 145.935
Cosmos 2499 06 Jul 22:21:03 22:28:47 76° 75° (ENE) 22:37:09 435.465 / 435.565
CUBEBUG 1 06 Jul 22:24:49 22:27:45 18° 54° (NE) 22:30:46 437.445
CUBESAT XI-V 06 Jul 22:28:39 22:30:43 13° 312° (NW) 22:32:38 437.345
50 SAT 06 Jul 22:29:53 22:33:06 26° 62° (ENE) 22:36:22 437.505
M-CUBED/EXP-1 PRIME 06 Jul 22:30:21 22:34:20 42° 105° (ESE) 22:38:36 437.505
DOVE 4 06 Jul 22:32:10 22:35:43 21° 271° (W) 22:39:03 437.250
UWE-3 06 Jul 22:36:29 22:40:39 65° 258° (WSW) 22:44:48 435.000/436.395/437.385
SO-50 06 Jul 22:36:41 22:41:06 31° 12° (NNE) 22:45:32 436.795
SEEDS 06 Jul 22:39:46 22:42:58 20° 271° (W) 22:46:08 437.485
DELFI C3 06 Jul 22:40:03 22:44:03 63° 258° (WSW) 22:48:05 145.870
BRITE-PL 06 Jul 22:42:15 22:43:19 10° 280° (W) 22:44:05 437.365/2234.400
AAUSAT CUBESAT 2 06 Jul 22:43:45 22:47:13 25° 269° (W) 22:50:40 437.432
STRAND 1 06 Jul 22:47:42 22:51:42 23° 306° (NW) 22:55:38 437.568
ESTCUBE 1 06 Jul 22:55:39 22:59:43 33° 62° (ENE) 23:03:50 437.505/2401.250
CINEMA 3 06 Jul 22:58:26 23:01:48 21° 270° (W) 23:05:03 145.822/145.860
DX 1 06 Jul 23:01:10 23:05:34 79° 71° (ENE) 23:09:58 434.975-435.025
VELOX 1 06 Jul 23:02:02 23:06:21 50° 67° (ENE) 23:10:41 145.980
UNISAT 6 06 Jul 23:04:06 23:06:27 14° 85° (E) 23:08:59 437.425
PRISM 06 Jul 23:10:23 23:11:59 12° 311° (NW) 23:13:27 437.425
COMPASS 1 06 Jul 23:14:11 23:16:12 13° 276° (W) 23:18:03 437.405
HUMSAT D 06 Jul 23:14:44 23:18:50 72° 258° (WSW) 23:22:56 437.325/437.525
SPROUT 06 Jul 23:16:37 23:19:26 18° 55° (NE) 23:22:20 437.525
UKube-1 06 Jul 23:18:02 23:22:23 81° 255° (WSW) 23:26:46 .
ZACube-1 06 Jul 23:18:30 23:22:19 34° 264° (W) 23:26:08 437.345
Oscar 11 06 Jul 23:21:53 23:25:21 23° 270° (W) 23:28:46 145.826/435.025
AUBIESAT-1 06 Jul 23:28:06 23:32:14 72° 295° (WNW) 23:36:40 437.475
CUBEBUG 2 06 Jul 23:29:01 23:32:12 20° 271° (W) 23:35:16 437.445
NANOSAT C BR1 06 Jul 23:32:16 23:33:29 11° 83° (E) 23:34:55 145.865
DUCHIFAT 1 06 Jul 23:37:51 23:39:34 12° 84° (E) 23:41:27 145.980
PCSat 06 Jul 23:42:48 23:48:10 56° 39° (NE) 23:53:32 145.827
POLYITAN 1 06 Jul 23:45:52 23:48:21 15° 86° (E) 23:50:57 437.675
TISAT 1 06 Jul 23:47:00 23:50:13 22° 58° (ENE) 23:53:30 437.305
ANTELSAT 06 Jul 23:47:40 23:51:37 32° 95° (E) 23:55:40 437.575/2403.000
HO-68 06 Jul 23:49:48 23:52:18 12° 285° (WNW) 23:54:22 435.675
AISAT 06 Jul 23:49:57 23:54:25 65° 257° (WSW) 23:58:52 437.250
FUNcube-1 06 Jul 23:54:43 23:57:39 18° 272° (W) 00:00:29 145.935
TIGRISAT 06 Jul 23:58:44 00:02:49 39° 97° (E) 00:07:00 435.000
CUBEBUG 1 06 Jul 23:59:07 00:03:34 89° 253° (WSW) 00:08:02 437.445
GONETS M04 07 Jul 00:03:02 00:06:26 12° 296° (WNW) 00:09:22
50 SAT 07 Jul 00:03:55 00:07:35 41° 262° (W) 00:11:16 437.505
Cosmos 2491 07 Jul 00:04:55 00:10:22 18° 35° (NE) 00:16:03 435.465 / 435.565
M-CUBED/EXP-1 PRIME 07 Jul 00:05:21 00:09:05 33° 303° (WNW) 00:13:02 437.505
SWISSCUBE 07 Jul 00:08:49 00:10:54 13° 47° (NE) 00:13:09 437.505
QB50P2 07 Jul 00:14:24 00:18:01 27° 93° (E) 00:21:39 145.880/145.840
POPSAT HIP 1 07 Jul 00:14:26 00:17:59 26° 93° (E) 00:21:34 437.405
Cosmos 2499 07 Jul 00:14:45 00:21:27 32° 277° (W) 00:28:26 435.465 / 435.565
ITUPSAT 1 07 Jul 00:15:19 00:17:32 13° 47° (NE) 00:19:55 437.325
SO-50 07 Jul 00:17:30 00:22:28 62° 35° (NE) 00:27:23 436.795
ESTCUBE 1 07 Jul 00:32:10 00:36:31 43° 262° (W) 00:40:53 437.505/2401.250
VELOX 1 07 Jul 00:39:19 00:43:09 27° 267° (W) 00:46:57 145.980
DX 1 07 Jul 00:39:28 00:42:24 17° 272° (W) 00:45:14 434.975-435.025
UNISAT 6 07 Jul 00:39:33 00:43:57 88° 113° (ESE) 00:48:25 437.425
SPROUT 07 Jul 00:50:40 00:54:59 87° 249° (WSW) 00:59:20 437.525
QB50P1 07 Jul 00:52:51 00:57:02 57° 101° (E) 01:01:10 145.935-145.965
HUMSAT D 07 Jul 00:54:32 00:55:26 10° 278° (W) 00:56:09 437.325/437.525
UKube-1 07 Jul 00:57:11 00:59:19 13° 276° (W) 01:01:16 .
AUBIESAT-1 07 Jul 01:03:55 01:06:26 16° 313° (NW) 01:08:58 437.475
NANOSAT C BR1 07 Jul 01:05:57 01:10:11 74° 105° (ESE) 01:14:23 145.865
DUCHIFAT 1 07 Jul 01:11:55 01:16:09 81° 105° (ESE) 01:20:21 145.980
BUGSAT 1 07 Jul 01:16:37 01:20:42 64° 102° (ESE) 01:24:42 437.445
POLYITAN 1 07 Jul 01:20:37 01:24:52 81° 289° (WNW) 01:29:05 437.675
TISAT 1 07 Jul 01:21:27 01:25:39 64° 257° (WSW) 01:29:52 437.305
ANTELSAT 07 Jul 01:24:24 01:28:30 40° 295° (WNW) 01:32:40 437.575/2403.000
PCSat 07 Jul 01:26:26 01:31:31 41° 241° (WSW) 01:36:33 145.827
BEESAT 07 Jul 01:27:27 01:31:51 39° 63° (ENE) 01:36:20 436.000
AISAT 07 Jul 01:30:48 01:31:58 11° 278° (W) 01:32:55 437.250
TIGRISAT 07 Jul 01:35:36 01:39:33 34° 296° (WNW) 01:43:32 435.000
AIST 1 07 Jul 01:36:55 01:39:29 15° 56° (NE) 01:42:10
CUBEBUG 1 07 Jul 01:38:01 01:40:39 15° 275° (W) 01:43:07 437.445
SWISSCUBE 07 Jul 01:43:11 01:47:51 53° 67° (ENE) 01:52:33 437.505
RS-15 07 Jul 01:48:28 01:56:39 26° 103° (ESE) 02:05:24 29.354- 29.394
ITUPSAT 1 07 Jul 01:49:50 01:54:32 55° 67° (ENE) 01:59:17 437.325
POPSAT HIP 1 07 Jul 01:50:01 01:54:05 46° 293° (WNW) 01:58:07 437.405
QB50P2 07 Jul 01:50:03 01:54:06 45° 293° (WNW) 01:58:08 145.880/145.840
KKS-1 07 Jul 01:58:05 02:01:05 18° 54° (NE) 02:04:11 437.445
SO-50 07 Jul 01:58:17 02:02:53 37° 236° (SW) 02:07:22 436.795
Cosmos 2491 07 Jul 02:01:38 02:10:05 49° 64° (ENE) 02:18:29 435.465 / 435.565
Oscar 19 07 Jul 02:06:55 02:10:36 20° 87° (E) 02:14:25 437.125/150
UNISAT 6 07 Jul 02:17:17 02:20:14 18° 305° (NW) 02:23:08 437.425
QB50P1 07 Jul 02:29:13 02:32:37 24° 301° (WNW) 02:35:57 145.935-145.965
SPROUT 07 Jul 02:29:30 02:31:49 14° 275° (W) 02:33:59 437.525
Gurwin Techsat 1B 07 Jul 02:35:54 02:38:08 13° 80° (E) 02:40:38 435.225
STARS 07 Jul 02:42:16 02:45:54 26° 59° (ENE) 02:49:35 437.465
NANOSAT C BR1 07 Jul 02:42:32 02:45:36 19° 303° (WNW) 02:48:34 145.865
YUBILEINY 07 Jul 02:45:36 02:52:22 27° 77° (ENE) 02:59:21 435.215
DUCHIFAT 1 07 Jul 02:48:36 02:51:29 18° 304° (NW) 02:54:16 145.980
BUGSAT 1 07 Jul 02:52:45 02:55:49 21° 302° (WNW) 02:58:48 437.445
POLYITAN 1 07 Jul 02:57:40 03:00:11 15° 307° (NW) 03:02:35 437.675
BEESAT 07 Jul 03:05:12 03:09:43 39° 263° (W) 03:14:15 436.000
AIST 1 07 Jul 03:13:31 03:17:56 86° 78° (ENE) 03:22:16
SWISSCUBE 07 Jul 03:21:49 03:25:59 28° 267° (W) 03:30:08 437.505
ITUPSAT 1 07 Jul 03:28:37 03:32:44 27° 268° (W) 03:36:50 437.325
KKS-1 07 Jul 03:32:44 03:37:13 87° 254° (WSW) 03:41:41 437.445
Oscar 19 07 Jul 03:45:29 03:50:39 81° 289° (WNW) 03:55:48 437.125/150
RS-15 07 Jul 03:56:22 04:07:15 74° 129° (SE) 04:18:38 29.354- 29.394
Cosmos 2491 07 Jul 03:58:44 04:07:14 56° 269° (W) 04:15:37 435.465 / 435.565
ITAMSAT 1 07 Jul 04:03:20 04:08:26 51° 99° (E) 04:13:31 435.822/435.867
JAS-2 07 Jul 04:06:53 04:12:24 28° 89° (E) 04:18:33 435.910
MOZHAYETS 4 07 Jul 04:11:12 04:15:19 34° 63° (ENE) 04:19:32
Gurwin Techsat 1B 07 Jul 04:13:59 04:19:19 64° 102° (ESE) 04:24:37 435.225
STARS 07 Jul 04:17:48 04:22:07 54° 259° (W) 04:26:27 437.465
HORYU 2 07 Jul 04:19:26 04:21:45 14° 85° (E) 04:24:14 437.375
AO-7 07 Jul 04:32:32 04:39:12 26° 87° (E) 04:46:01 29.400- 29.500
YUBILEINY 07 Jul 04:39:29 04:48:13 89° 92° (E) 04:57:00 435.215
CUBESAT XI-V 07 Jul 04:48:30 04:50:38 13° 49° (NE) 04:52:54 437.345
AIST 1 07 Jul 04:52:30 04:54:59 15° 278° (W) 04:57:18
KKS-1 07 Jul 05:12:03 05:14:35 14° 275° (W) 05:16:59 437.445
STRAND 1 07 Jul 05:16:47 05:18:58 13° 44° (NE) 05:21:19 437.568
Oscar 19 07 Jul 05:25:44 05:29:22 19° 309° (NW) 05:32:54 437.125/150
ITAMSAT 1 07 Jul 05:43:06 05:47:49 35° 300° (WNW) 05:52:30 435.822/435.867
MOZHAYETS 4 07 Jul 05:48:07 05:52:30 42° 263° (W) 05:56:55
JAS-2 07 Jul 05:51:38 05:58:06 80° 289° (WNW) 06:05:22 435.910
Gurwin Techsat 1B 07 Jul 05:54:25 05:59:00 29° 303° (WNW) 06:03:30 435.225
HORYU 2 07 Jul 05:54:40 05:59:10 85° 106° (ESE) 06:03:40 437.375
Cosmos 2491 07 Jul 05:57:30 06:02:13 15° 293° (WNW) 06:06:31 435.465 / 435.565
Cosmos 2504 07 Jul 06:01:13 06:07:33 41° 88° (E) 06:14:05 435.465 / 435.565
RS-15 07 Jul 06:09:18 06:20:18 61° 339° (NNW) 06:31:50 29.354- 29.394
CUBESAT XI-V 07 Jul 06:22:35 06:27:13 57° 68° (ENE) 06:31:52 437.345
AO-7 07 Jul 06:24:52 06:33:20 85° 111° (ESE) 06:41:44 29.400- 29.500
YUBILEINY 07 Jul 06:38:49 06:46:22 31° 307° (NW) 06:53:51 435.215
